Weather Roundup
Issued by NWS

Home | Current Version | Previous Version | Text Only | Print | Product List | Glossary On
Versions: 1 2 3 4 5 6 7 8 9 10 11 12 13 14 15 16 17 18 19 20 21 22 23 24 25 26 27 28 29 30 31 32 33 34 35 36 37 38 39 40 41 42 43 44 45 46 47 48 49 50
000
NZUS93 KARX 231759
HRRWXR

CURRENT HOURLY OBSERVATIONS ACROSS
MUCH OF THE UPPER MISSISSIPPI VALLEY
NATIONAL WEATHER SERVICE LA CROSSE WI
100 PM CDT THU OCT 23 2014


...SOUTHEAST MINNESOTA...


CITY           SKY/WX    TMP DP  RH WIND       PRES   REMARKS
ROCHESTER      CLOUDY    52  50  93 SW6       30.03F
ROCHESTER/MAYO CLOUDY    53  51  92 W9        30.02S
WINONA         CLOUDY    52  48  87 S3        30.04S
AUSTIN         CLOUDY    54  52  94 W5        30.02S
ALBERT LEA     MOSUNNY   57  57 100 W3        30.01F
DODGE CENTER   CLOUDY    54  52  94 W10       30.02F
PRESTON        CLOUDY    48  47  95 S6        30.03F FOG
OWATONNA       SUNNY     59  52  77 CALM      30.01F
FARIBAULT      PTSUNNY   57  54  88 CALM      30.01F
$$

...ELSEWHERE IN MINNESOTA...


CITY           SKY/WX    TMP DP  RH WIND       PRES   REMARKS
MINNEAPOLIS    MOSUNNY   61  51  70 W3        30.00S
INTNL FALLS    SUNNY     62  47  57 SW10G18   29.86F
DULUTH         CLOUDY    52  48  86 W8        29.96S FOG
RED WING         N/A     54  52  94 W3        30.01
REDWOOD FALLS  SUNNY     65  46  50 W7        29.99F
MANKATO        SUNNY     64  48  55 SW8       30.00F
WORTHINGTON    SUNNY     64  46  52 W10       30.03F
FAIRMONT       SUNNY     66  19  16 W7        30.01F
$$

...SOUTHWEST WISCONSIN...


CITY           SKY/WX    TMP DP  RH WIND       PRES   REMARKS
LA CROSSE      CLOUDY    50  46  86 S14G20    30.05F
PRAIRIE DU CHI CLOUDY    47  44  90 E3        30.07F
BOSCOBEL       LGT RAIN  48  45  89 SW3       30.08F FOG
LONE ROCK      RAIN      50  44  80 E3        30.08F
PLATTEVILLE    CLOUDY    47  45  93 S8        30.09F
FORT MC COY    CLOUDY    47  45  93 S3        30.07S
VIROQUA        CLOUDY    45  45 100 CALM      30.06F
WIS DELLS      RAIN      46  43  91 S5        30.07F
$$

...ELSEWHERE IN WISCONSIN...


CITY           SKY/WX    TMP DP  RH WIND       PRES   REMARKS
MILWAUKEE      CLOUDY    58  41  53 SW9       30.12F
MADISON        LGT RAIN  51  44  77 S7        30.09F
GREEN BAY      CLOUDY    54  40  59 S12       30.10F
EAU CLAIRE     NOT AVBL
BLACK RVR FLS  CLOUDY    48  48 100 S5        30.04F
MEDFORD        DRIZZLE   43  42  97 S6        30.03F
WAUSAU         RAIN      44  43  96 S7        30.04F FOG
WIS RAPIDS     LGT RAIN  46  44  93 S6        30.06F FOG
MARSHFIELD     LGT RAIN  46  44  93 S7        30.04F FOG
RICE LAKE      CLOUDY    50  49  95 S7        30.02F FOG
$$

...NORTHEAST IOWA...


CITY           SKY/WX    TMP DP  RH WIND       PRES   REMARKS
DECORAH        CLOUDY    48  46  93 S6        30.04F FOG
MASON CITY     MOSUNNY   59  53  80 NW6       30.04F
CHARLES CITY   CLOUDY    50  50 100 S6        30.04F FOG
OELWEIN        CLOUDY    48  48 100 S6        30.05F FOG
$$

...ELSEWHERE IN IOWA...


CITY           SKY/WX    TMP DP  RH WIND       PRES   REMARKS
DES MOINES     CLOUDY    67  60  78 W10       30.04F
IOWA CITY      CLOUDY    56  50  80 S6        30.08F
FORT DODGE     SUNNY     63  54  72 NW8       30.05F
$$

...NORTHERN ILLINOIS...


CITY           SKY/WX    TMP DP  RH WIND       PRES   REMARKS
CHICAGO-OHARE  PTSUNNY   58  41  53 S12       30.14F
CHICAGO-MIDWAY MOSUNNY   60  41  49 S9        30.15F
MOLINE         CLOUDY    59  44  57 S13       30.09F
ROCKFORD       CLOUDY    60  43  53 S14       30.12F
PEORIA         CLOUDY    57  44  62 S12       30.15F
$$

NOTE: "FAIR" INDICATES FEW OR NO CLOUDS BELOW 12,000 FEET WITH NO
SIGNIFICANT WEATHER AND/OR OBSTRUCTIONS TO VISIBILITY. WIND
SPEEDS ARE IN MILES-PER-HOUR.



USA.gov is the U.S. government's official web portal to all federal, state and local government web resources and services.